Погода в Алексеевке

Россия / Астраханская область     45°56′57″N   47°52′34″E
темп.,
°C
ветер,
м/с
пор.,
м/с
влажн.,
%
обл.,
%
осадки,
мм/ч
давл.,
гПа
погр.,
м
13 мая, чт
чт1301:00+15юв22640 0.0 101534
04:00+14ю22690 0.0 101520
07:00+17ююв22610 0.0 1015137
10:00+22юв45420 0.0 1016904
13:00+26ююв56330 0.0 10161049
16:00+26юв68360 0.0 1016883
19:00+23юв57440 0.0 1016491
22:00+18вюв36660 0.0 1017135
14 мая, пт
пт1401:00+19юв35600 0.0 101661
04:00+19в46540 0.0 101684
07:00+22юв615460 0.0 1017407
10:00+28ююв813221 0.0 1017736
13:00+30юв811165 0.0 1018871
16:00+29юв912151 0.0 1018871
19:00+25вюв713301 0.0 1017486
22:00+21в410365 0.0 1017138
15 мая, сб
сб1501:00+19в48600 0.0 1016112
04:00+19вюв512560 0.0 1016175
07:00+23юв716390 0.0 1017464
10:00+29юв912260 0.0 10171032
13:00+31юв810210 0.0 10171608
16:00+30юв79220 0.0 10161300
19:00+26вюв58300 0.0 1016439
22:00+21в47430 0.0 1016112
16 мая, вс
вс1601:00+20всв45440 0.0 101566
04:00+19в48610 0.0 1014112
07:00+24юв614420 0.0 1014396
10:00+29юв911240 0.0 10141004
13:00+30вюв911220 0.0 10141181
16:00+30вюв810200 0.0 10131007
19:00+27вюв610280 0.0 1012553
22:00+21в513440 0.0 1012220
17 мая, пн
пн1701:00+20в510540 0.0 1011173
04:00+20в511540 0.0 1010163
07:00+24вюв715360 0.0 1011472
10:00+29вюв912180 0.0 10111037
13:00+31вюв911170 0.0 10111377
16:00+31вюв912145 0.0 10101889
19:00+28в711235 0.0 1009563
22:00+21в49505 0.0 1010153